Home   Weather   Kuopio   Past weeks

Flag for Finland Past Weather in Kuopio, Finland — Yesterday and Last 2 Weeks

Now
52 °F

Overcast.


Feels Like: 49 °F
Forecast: 52 / 58 °F
Wind: 9 mph from South

Location: Kuopio Airport

Current Time: Sep 25, 2016 at 10:18:30 PM

Latest Report: Sep 25, 2016 at 9:50 PM


Visibility: N/A

Pressure: 30.15 "Hg

Humidity: 94%

Dew Point: 50 °F

Location of KuopioLocation

Past Weather in Kuopio — Graph

°F

Kuopio Temperature Yesterday

Maximum temperature yesterday: 48 °F (at 11:20 AM)
Minimum temperature yesterday: 46 °F (at 12:20 AM)
Average temperature yesterday: 47 °F

High & Low Weather Summary for the Past Weeks

 TemperatureHumidityPressure
High63 °F (Sep 11, 6:20 PM)100% (Sep 11, 7:20 AM)30.30 "Hg (Sep 11, 7:20 AM)
Low39 °F (Sep 14, 5:50 AM)51% (Sep 12, 4:20 PM)29.74 "Hg (Sep 12, 1:20 AM)
Average50 °F81%30.08 "Hg
* Reported Sep 10 8:20 PM — Sep 25 8:50 PM, Kuopio, Weather by CustomWeather, © 2016

Note: Actual official high and low records may vary slightly from our data, if they occured in-between our weather recording intervals... More about our weather records

Advertising

Kuopio Weather History for the Previous 24 Hours

Scroll right to see more
 ConditionsComfort  
Time TempWeatherWind HumidityBarometerVisibility
8:50 PM
Sun, Sep 25
52 °FOvercast.8 mph94%30.15 "HgN/A
8:20 PM52 °FOvercast.10 mph94%30.15 "HgN/A
7:50 PM50 °FLow clouds.10 mph100%30.15 "HgN/A
7:20 PM50 °FSprinkles. Low clouds.8 mph100%30.15 "HgN/A
6:50 PM50 °FFog.8 mph100%30.15 "Hg2 mi
6:20 PM52 °FLow clouds.9 mph94%30.15 "HgN/A
5:50 PM52 °FOvercast.9 mph94%30.15 "HgN/A
5:20 PM52 °FOvercast.6 mph94%30.15 "HgN/A
4:50 PM52 °FOvercast.7 mph88%30.15 "HgN/A
4:20 PM52 °FOvercast.8 mph94%30.15 "HgN/A
3:50 PM52 °FLow clouds.10 mph94%30.12 "HgN/A
3:20 PM52 °FLow clouds.10 mph94%30.15 "HgN/A
2:50 PM52 °FLow clouds.10 mph94%30.15 "HgN/A
2:20 PM52 °FLow clouds.8 mph94%30.15 "HgN/A
1:50 PM50 °FSprinkles. Low clouds.7 mph100%30.15 "HgN/A
1:20 PM50 °FLow clouds.7 mph100%30.15 "HgN/A
12:50 PM50 °FDrizzle. Mostly cloudy.6 mph94%30.15 "HgN/A
12:20 PM50 °FLight rain. Mostly cloudy.7 mph94%30.12 "HgN/A
11:50 AM50 °FLight rain. Mostly cloudy.9 mph94%30.12 "HgN/A
11:20 AM50 °FLight rain. Low clouds.8 mph94%30.12 "HgN/A
10:50 AM48 °FLight rain. Low clouds.9 mph94%30.12 "HgN/A
10:20 AM48 °FLight rain. Low clouds.8 mph94%30.12 "Hg4 mi
9:50 AM48 °FLow clouds.8 mph94%30.12 "HgN/A
9:20 AM46 °FLow clouds.9 mph93%30.12 "HgN/A
8:50 AM46 °FLow clouds.12 mph93%30.12 "HgN/A
8:20 AM46 °FLow clouds.9 mph93%30.12 "Hg5 mi
7:50 AM45 °FLow clouds.9 mph100%30.12 "HgN/A
7:20 AM45 °FOvercast.8 mph93%30.12 "Hg3 mi
6:50 AM45 °FOvercast.9 mph93%30.12 "Hg3 mi
6:20 AM45 °FOvercast.10 mph87%30.12 "HgN/A
5:50 AM45 °FOvercast.9 mph87%30.12 "HgN/A
5:20 AM45 °FMostly cloudy.7 mph87%30.12 "HgN/A
4:50 AM45 °FMostly cloudy.8 mph87%30.12 "HgN/A
4:20 AM45 °FOvercast.8 mph87%30.09 "HgN/A
3:50 AM46 °FOvercast.10 mph82%30.09 "HgN/A
3:20 AM46 °FOvercast.9 mph82%30.09 "HgN/A
2:50 AM46 °FOvercast.9 mph82%30.09 "HgN/A
2:20 AM46 °FOvercast.9 mph87%30.09 "HgN/A
1:50 AM46 °FOvercast.9 mph87%30.09 "HgN/A
1:20 AM46 °FOvercast.9 mph87%30.09 "HgN/A
12:50 AM46 °FOvercast.10 mph87%30.07 "HgN/A
12:20 AM46 °FOvercast.9 mph87%30.07 "HgN/A
11:50 PM
Sat, Sep 24
46 °FOvercast.8 mph87%30.07 "HgN/A
11:20 PM46 °FOvercast.7 mph87%30.07 "HgN/A
10:50 PM46 °FOvercast.8 mph87%30.04 "HgN/A
10:20 PM46 °FOvercast.9 mph93%30.04 "HgN/A
Weather by CustomWeather, © 2016

See weather overviewHow to use our weather pages